Voltar ao catálogo

THOR ABLESTAR DEB

AtivoLEO
NORAD 48822·DEBRIS·🇺🇸 United States

Lançado Jun 29, 1961 de Cape Canaveral Space Force Station

Loading…

Próximas Passagens (próximas 24 horas)

TLE

AtualizadoSource: Space-Track

Época: Sep 13, 2026, 23:28 UTC

1 48822U 61015NA  26256.97798891  .00000008  00000-0  50501-4 0  9999
2 48822  66.7165 141.5985 0120699 324.4413  34.8671 14.06065080657230

Acompanhe THOR ABLESTAR DEB em tempo real com AllMySat

Download on the App Store